Location: 5810 Zion Rd, Cleves, OH 45002, USA
(39.1922°N, 84.7113°W)
Time: 21:54:39
(UTC-05:00)

Transit 2A - Visible Passes

Search period start: 11 December 2019 00:00
Search period end: 21 December 2019 00:00
Orbit: 602 x 957 km, 66.7° (Epoch: 11 December)

Date Brightness Start Highest point End Pass type
(mag) Time Alt. Az. Time Alt. Az. Time Alt. Az.
11 Dec 8.2 06:15:09 10° SSE 06:19:08 25° ESE 06:22:53 10° NE visible
12 Dec 8.8 05:42:11 10° SE 05:45:09 16° ESE 05:47:59 10° ENE visible
13 Dec 5.6 06:48:55 10° SSW 06:53:48 79° WNW 06:58:18 10° NNE visible
14 Dec 6.1 06:14:51 10° SSW 06:19:42 67° ESE 06:24:10 10° NE visible
15 Dec 6.9 05:41:02 10° S 05:45:38 42° ESE 05:49:54 10° NE visible
16 Dec 7.7 05:07:32 10° SSE 05:11:36 27° ESE 05:15:25 10° NE visible
16 Dec 6.4 06:50:25 10° WSW 06:54:37 30° NW 06:58:35 10° N visible
17 Dec 8.3 04:36:43 17° ESE 04:37:36 17° ESE 04:40:37 10° ENE visible
17 Dec 5.9 06:17:28 20° WSW 06:20:25 46° WNW 06:24:44 10° NNE visible
18 Dec 5.6 05:46:44 65° NNW 05:46:44 65° NNW 05:50:44 10° NNE visible
19 Dec 7.5 05:15:00 22° NE 05:15:00 22° NE 05:16:38 10° NNE visible
19 Dec 7.3 06:55:33 13° NW 06:55:43 13° NW 06:57:56 10° NNW visible
20 Dec 7.5 06:23:19 15° NNW 06:23:19 15° NNW 06:24:37 10° N visible
